Location: Unspecified
(0.0000°N, 0.0000°E)
Time: 00:01:49
(UTC+00:00)

deb Delta 126 - Visible Passes

Search period start: 18 May 2026 00:00
Search period end: 28 May 2026 00:00
Orbit: 1374 x 2398 km, 102.1° (Epoch: 16 May)

Date Brightness Start Highest point End Pass type
(mag) Time Alt. Az. Time Alt. Az. Time Alt. Az.
18 May ? 02:21:20 10° E 02:27:26 16° ESE 02:33:54 10° SE visible
18 May ? 04:17:32 10° NNE 04:27:58 84° WNW 04:40:24 10° SSW visible
19 May ? 03:11:27 10° NE 03:21:18 41° ESE 03:32:31 10° S visible
19 May ? 05:13:16 10° N 05:22:38 39° WNW 05:33:33 10° SW visible
20 May ? 02:10:51 10° E 02:15:11 13° ESE 02:19:40 10° SE visible
20 May ? 04:04:54 10° NNE 04:15:33 85° ESE 04:28:05 10° SSW visible
21 May ? 02:59:23 10° NE 03:08:59 35° ESE 03:19:41 10° S visible
21 May ? 05:00:15 10° N 05:10:08 47° WNW 05:21:43 10° SW visible
22 May ? 03:52:22 10° NNE 04:03:08 74° ESE 04:15:41 10° S visible
23 May ? 02:47:28 10° NE 02:56:40 29° ESE 03:06:44 10° SSE visible
23 May ? 04:47:20 10° N 04:57:39 56° WNW 05:09:44 10° SSW visible
24 May ? 03:39:55 10° NNE 03:50:45 64° ESE 04:03:13 10° S visible
25 May ? 02:35:45 10° ENE 02:44:22 25° ESE 02:53:38 10° SSE visible
25 May ? 04:34:30 10° N 04:45:11 65° WNW 04:57:39 10° SSW visible
26 May ? 03:27:33 10° NNE 03:38:23 56° ESE 03:50:38 10° S visible
26 May ? 05:31:01 10° NNW 05:39:51 29° WNW 05:49:49 10° SW visible
27 May ? 02:24:16 10° ENE 02:32:04 21° ESE 02:40:19 10° SSE visible
27 May ? 04:21:46 10° N 04:32:44 75° WNW 04:45:28 10° SSW visible
